• Em Portugal
  • Lista de países
  • Para 7 dias
  • Temperatura da água
  • Mapas de satélite
  • Mapa do tempo
  • Widgets de tempo
  • user-avatar
    Iniciar Sessão

    Previsão horária em Jastkowice

    Hoje, 22 Abril, Domingo

    Tempo Temperatura Precipitação Vento Pressão Humidade
    00:00 +13°C° 0 mm 2 m/s 748 mmHg 75%
    01:00 +12°C° 0 mm 1 m/s 749 mmHg 76%
    02:00 +11°C° 0 mm 1 m/s 749 mmHg 75%
    03:00 +11°C° 0 mm 1 m/s 749 mmHg 75%
    04:00 +10°C° 0 mm 1 m/s 749 mmHg 74%
    05:00 +11°C° 0 mm 1 m/s 749 mmHg 68%
    06:00 +13°C° 0 mm 1 m/s 749 mmHg 62%
    07:00 +14°C° 0 mm 1 m/s 749 mmHg 56%
    08:00 +15°C° 0 mm 1 m/s 749 mmHg 51%
    09:00 +17°C° 0 mm 2 m/s 749 mmHg 46%
    10:00 +18°C° 0 mm 2 m/s 749 mmHg 41%
    11:00 +19°C° 0 mm 3 m/s 748 mmHg 39%
    12:00 +20°C° 0 mm 3 m/s 748 mmHg 37%
    13:00 +21°C° 0 mm 3 m/s 748 mmHg 34%
    14:00 +20°C° 0 mm 3 m/s 748 mmHg 35%
    15:00 +20°C° 0 mm 4 m/s 747 mmHg 37%
    16:00 +20°C° 0 mm 4 m/s 747 mmHg 38%
    17:00 +18°C° 0 mm 3 m/s 747 mmHg 43%
    18:00 +16°C° 0 mm 3 m/s 747 mmHg 49%
    19:00 +14°C° 0 mm 2 m/s 747 mmHg 55%
    20:00 +13°C° 0 mm 2 m/s 748 mmHg 57%
    21:00 +12°C° 0 mm 1 m/s 748 mmHg 58%
    22:00 +11°C° 0 mm 1 m/s 748 mmHg 60%
    23:00 +11°C° 0 mm 1 m/s 748 mmHg 61%

    Amanhã, 23 Abril, Segunda-feira

    Tempo Temperatura Precipitação Vento Pressão Humidade
    00:00 +10°C° 0 mm 0 m/s 748 mmHg 62%
    01:00 +10°C° 0 mm 0 m/s 748 mmHg 62%
    02:00 +9°C° 0 mm 0 m/s 748 mmHg 64%
    03:00 +9°C° 0 mm 0 m/s 748 mmHg 66%
    04:00 +8°C° 0 mm 0 m/s 748 mmHg 68%
    05:00 +10°C° 0 mm 0 m/s 748 mmHg 63%
    06:00 +12°C° 0 mm 1 m/s 748 mmHg 59%
    07:00 +14°C° 0 mm 1 m/s 748 mmHg 55%
    08:00 +16°C° 0 mm 1 m/s 748 mmHg 50%
    09:00 +18°C° 0 mm 1 m/s 747 mmHg 45%
    10:00 +19°C° 0 mm 2 m/s 747 mmHg 41%
    11:00 +20°C° 0 mm 2 m/s 747 mmHg 39%
    12:00 +21°C° 0 mm 2 m/s 746 mmHg 38%
    13:00 +23°C° 0 mm 2 m/s 746 mmHg 37%
    14:00 +23°C° 0 mm 2 m/s 745 mmHg 38%
    15:00 +24°C° 0 mm 2 m/s 745 mmHg 40%
    16:00 +24°C° 0 mm 2 m/s 744 mmHg 42%
    17:00 +21°C° 0,6 mm 2 m/s 744 mmHg 52%
    18:00 +19°C° 0,6 mm 2 m/s 744 mmHg 63%
    19:00 +17°C° 0,6 mm 2 m/s 744 mmHg 73%
    20:00 +17°C° 0,7 mm 2 m/s 744 mmHg 78%
    21:00 +16°C° 0,7 mm 2 m/s 744 mmHg 83%
    22:00 +16°C° 0,7 mm 2 m/s 744 mmHg 88%
    23:00 +16°C° 0,1 mm 3 m/s 744 mmHg 90%

    Depois de amanhã, 24 Abril, Terça-feira

    Tempo Temperatura Precipitação Vento Pressão Humidade
    00:00 +14°C° 0,1 mm 3 m/s 745 mmHg 92%
    01:00 +14°C° 0,1 mm 4 m/s 745 mmHg 93%
    02:00 +13°C° 0 mm 4 m/s 745 mmHg 92%
    03:00 +13°C° 0 mm 4 m/s 746 mmHg 91%
    04:00 +12°C° 0 mm 4 m/s 746 mmHg 90%
    05:00 +12°C° 0 mm 4 m/s 747 mmHg 84%
    06:00 +12°C° 0 mm 4 m/s 747 mmHg 78%
    07:00 +13°C° 0 mm 4 m/s 748 mmHg 72%
    08:00 +14°C° 0 mm 4 m/s 748 mmHg 68%
    09:00 +15°C° 0 mm 4 m/s 748 mmHg 64%
    10:00 +17°C° 0 mm 4 m/s 748 mmHg 60%
    11:00 +16°C° 0 mm 5 m/s 748 mmHg 58%
    12:00 +17°C° 0 mm 5 m/s 748 mmHg 55%
    13:00 +17°C° 0 mm 5 m/s 748 mmHg 52%
    14:00 +19°C° 0 mm 4 m/s 748 mmHg 51%
    15:00 +19°C° 0 mm 4 m/s 748 mmHg 50%
    16:00 +19°C° 0 mm 4 m/s 747 mmHg 49%
    17:00 +18°C° 0 mm 3 m/s 747 mmHg 53%
    18:00 +16°C° 0 mm 2 m/s 747 mmHg 57%
    19:00 +15°C° 0 mm 2 m/s 747 mmHg 62%
    20:00 +14°C° 0 mm 1 m/s 747 mmHg 63%
    21:00 +14°C° 0 mm 1 m/s 748 mmHg 65%
    22:00 +13°C° 0 mm 1 m/s 748 mmHg 66%
    23:00 +13°C° 0 mm 2 m/s 748 mmHg 68%

    25 Abril, Quarta-feira

    Tempo Temperatura Precipitação Vento Pressão Humidade
    00:00 +13°C° 0 mm 2 m/s 747 mmHg 69%
    01:00 +11°C° 0 mm 3 m/s 747 mmHg 70%
    02:00 +11°C° 0 mm 3 m/s 747 mmHg 73%
    03:00 +11°C° 0 mm 3 m/s 747 mmHg 76%
    04:00 +10°C° 0 mm 3 m/s 747 mmHg 78%
    05:00 +12°C° 0 mm 3 m/s 747 mmHg 75%
    06:00 +13°C° 0 mm 3 m/s 747 mmHg 71%
    07:00 +16°C° 0 mm 3 m/s 747 mmHg 68%
    08:00 +18°C° 0 mm 4 m/s 746 mmHg 61%
    09:00 +20°C° 0 mm 4 m/s 746 mmHg 55%
    10:00 +22°C° 0 mm 5 m/s 746 mmHg 48%
    11:00 +23°C° 0 mm 6 m/s 745 mmHg 45%
    12:00 +24°C° 0 mm 7 m/s 745 mmHg 42%
    13:00 +26°C° 0 mm 7 m/s 744 mmHg 39%
    14:00 +26°C° 0 mm 7 m/s 744 mmHg 41%
    15:00 +26°C° 0 mm 6 m/s 743 mmHg 42%
    16:00 +26°C° 0 mm 6 m/s 742 mmHg 43%
    17:00 +23°C° 0 mm 5 m/s 742 mmHg 48%
    18:00 +22°C° 0 mm 4 m/s 742 mmHg 53%
    19:00 +20°C° 0 mm 4 m/s 742 mmHg 58%
    20:00 +19°C° 0,4 mm 4 m/s 743 mmHg 65%
    21:00 +18°C° 0,4 mm 4 m/s 743 mmHg 73%
    22:00 +17°C° 0,4 mm 4 m/s 743 mmHg 80%
    23:00 +16°C° 0,1 mm 3 m/s 743 mmHg 83%

    26 Abril, Quinta-feira

    Tempo Temperatura Precipitação Vento Pressão Humidade
    00:00 +14°C° 0,1 mm 3 m/s 743 mmHg 86%
    01:00 +14°C° 0,1 mm 3 m/s 744 mmHg 89%
    02:00 +13°C° 0 mm 3 m/s 744 mmHg 90%
    03:00 +14°C° 0 mm 2 m/s 745 mmHg 90%
    04:00 +13°C° 0 mm 2 m/s 745 mmHg 91%
    05:00 +14°C° 0 mm 2 m/s 745 mmHg 87%
    06:00 +14°C° 0 mm 3 m/s 746 mmHg 84%
    07:00 +16°C° 0 mm 3 m/s 746 mmHg 80%
    08:00 +17°C° 0 mm 3 m/s 747 mmHg 74%
    09:00 +18°C° 0 mm 2 m/s 747 mmHg 68%
    10:00 +19°C° 0 mm 2 m/s 747 mmHg 62%
    11:00 +20°C° 0 mm 2 m/s 747 mmHg 58%
    12:00 +20°C° 0 mm 2 m/s 746 mmHg 55%
    13:00 +22°C° 0 mm 1 m/s 746 mmHg 52%
    14:00 +22°C° 0 mm 1 m/s 745 mmHg 54%
    15:00 +22°C° 0 mm 1 m/s 745 mmHg 56%
    16:00 +22°C° 0 mm 1 m/s 745 mmHg 57%
    17:00 +20°C° 0,8 mm 1 m/s 745 mmHg 65%
    18:00 +19°C° 0,8 mm 1 m/s 745 mmHg 73%
    19:00 +17°C° 0,8 mm 2 m/s 745 mmHg 81%
    20:00 +16°C° 1 mm 2 m/s 745 mmHg 84%
    21:00 +16°C° 1 mm 2 m/s 745 mmHg 87%
    22:00 +15°C° 1 mm 2 m/s 745 mmHg 91%
    23:00 +15°C° 0,3 mm 2 m/s 745 mmHg 91%

    27 Abril, Sexta-feira

    Tempo Temperatura Precipitação Vento Pressão Humidade
    00:00 +14°C° 0,3 mm 3 m/s 745 mmHg 91%
    01:00 +13°C° 0,3 mm 3 m/s 745 mmHg 91%
    02:00 +13°C° 0,7 mm 4 m/s 745 mmHg 90%
    03:00 +12°C° 0,7 mm 4 m/s 745 mmHg 89%
    04:00 +11°C° 0,7 mm 4 m/s 745 mmHg 88%
    05:00 +11°C° 0,2 mm 4 m/s 745 mmHg 88%
    06:00 +11°C° 0,2 mm 4 m/s 745 mmHg 88%
    07:00 +10°C° 0,2 mm 4 m/s 745 mmHg 89%
    08:00 +10°C° 0,4 mm 3 m/s 745 mmHg 89%
    09:00 +10°C° 0,4 mm 3 m/s 746 mmHg 88%
    10:00 +10°C° 0,4 mm 3 m/s 746 mmHg 88%
    11:00 +10°C° 0,4 mm 4 m/s 746 mmHg 88%
    12:00 +10°C° 0,4 mm 4 m/s 746 mmHg 88%
    13:00 +10°C° 0,4 mm 4 m/s 746 mmHg 88%
    14:00 +10°C° 0,8 mm 4 m/s 746 mmHg 88%
    15:00 +8°C° 0,8 mm 5 m/s 747 mmHg 88%
    16:00 +8°C° 0,8 mm 5 m/s 747 mmHg 88%
    17:00 +7°C° 0,2 mm 4 m/s 747 mmHg 89%
    18:00 +8°C° 0,2 mm 3 m/s 747 mmHg 89%
    19:00 +9°C° 0,2 mm 1 m/s 748 mmHg 90%
    20:00 +8°C° 0 mm 1 m/s 748 mmHg 91%
    21:00 +8°C° 0 mm 1 m/s 748 mmHg 92%
    22:00 +7°C° 0 mm 1 m/s 748 mmHg 93%
    23:00 +7°C° 0 mm 1 m/s 748 mmHg 93%
    Mostrar mais